This is the latest recevied weather packets stored in our database for station/object KN6CW-3. If no packets are shown the sender has not sent any weather packets the latest 1 day(s).
| Time | Temp. | Humidity | Pressure | Rain* | Wind** | Luminosity | Snow |
|---|---|---|---|---|---|---|---|
| 1778007266 | 24.44° C | 39% | 1007.2 hPa | 0 mm | 3.13 m/s, 178° | 853 W/m² | - |
| 1778006966 | 24.44° C | 41% | 1007.4 hPa | 0 mm | 3.58 m/s, 192° | 714 W/m² | - |
| 1778006666 | 24.44° C | 40% | 1007.5 hPa | 0 mm | 3.58 m/s, 275° | 717 W/m² | - |
| 1778006365 | 24.44° C | 40% | 1007.8 hPa | 0 mm | 3.58 m/s, 230° | 724 W/m² | - |
| 1778006067 | 23.89° C | 40% | 1007.7 hPa | 0 mm | 4.02 m/s, 194° | 499 W/m² | - |
| 1778005765 | 24.44° C | 38% | 1007.7 hPa | 0 mm | 3.58 m/s, 222° | 480 W/m² | - |
| 1778005465 | 25° C | 40% | 1007.8 hPa | 0 mm | 2.68 m/s, 182° | 659 W/m² | - |
| 1778005164 | 25° C | 39% | 1007.6 hPa | 0 mm | 2.68 m/s, 285° | 886 W/m² | - |
| 1778004864 | 24.44° C | 42% | 1007.9 hPa | 0 mm | 2.68 m/s, 161° | 863 W/m² | - |
| 1778004564 | 24.44° C | 40% | 1007.8 hPa | 0 mm | 3.13 m/s, 156° | 860 W/m² | - |
| 1778004263 | 24.44° C | 40% | 1007.9 hPa | 0 mm | 3.13 m/s, 167° | 921 W/m² | - |
| 1778003963 | 24.44° C | 41% | 1007.9 hPa | 0 mm | 3.13 m/s, 266° | 932 W/m² | - |
| 1778003663 | 23.89° C | 42% | 1008 hPa | 0 mm | 4.02 m/s, 186° | 965 W/m² | - |
| 1778003062 | 23.89° C | 43% | 1008.3 hPa | 0 mm | 3.13 m/s, 267° | 995 W/m² | - |
| 1778002762 | 23.89° C | 45% | 1008.1 hPa | 0 mm | 2.68 m/s, 214° | 918 W/m² | - |
| 1778002462 | 23.89° C | 44% | 1008.2 hPa | 0 mm | 3.13 m/s, 211° | 265 W/m² | - |
| 1778002161 | 23.89° C | 44% | 1008.2 hPa | 0 mm | 3.13 m/s, 264° | 721 W/m² | - |
| 1778001861 | 23.89° C | 45% | 1008.3 hPa | 0 mm | 3.13 m/s, 199° | 814 W/m² | - |
| 1778001561 | 23.33° C | 48% | 1008.3 hPa | 0 mm | 3.13 m/s, 221° | 879 W/m² | - |
| 1778001260 | 23.33° C | 47% | 1008.4 hPa | 0 mm | 3.58 m/s, 197° | 902 W/m² | - |
| 1778000960 | 23.33° C | 46% | 1008.4 hPa | 0 mm | 4.02 m/s, 217° | 912 W/m² | - |
| 1778000660 | 22.78° C | 49% | 1008.3 hPa | 0 mm | 4.02 m/s, 226° | 977 W/m² | - |
| 1778000059 | 22.78° C | 48% | 1008.6 hPa | 0 mm | 3.58 m/s, 196° | 921 W/m² | - |
| 1777999759 | 22.78° C | 49% | 1008.6 hPa | 0 mm | 3.13 m/s, 209° | 960 W/m² | - |
| 1777999459 | 23.33° C | 49% | 1008.6 hPa | 0 mm | 3.13 m/s, 175° | 947 W/m² | - |
* Rain latest hour (hover to see other rain measurements)
** Current wind speed in m/s (hover to see current wind gust speed)